Other Public Products
Issued by NWS Grand Forks, ND

Home | Current Version | Previous Version | Graphics & Text | Print | Product List | Glossary On
Versions: 1 2 3 4 5 6 7 8 9 10 11 12 13 14 15 16 17 18 19 20 21 22 23 24 25 26 27 28 29 30 31 32 33 34 35 36 37 38 39 40 41 42 43 44 45 46 47 48 49 50
000
FPUS83 KFGF 292310
OPUFGF
PRAIRIE TO PINES WEATHER ROUNDUP
NATIONAL WEATHER SERVICE EASTERN NORTH DAKOTA/GRAND FORKS ND
600 PM CDT TUE JUL 29 2014

 **SATELLITE DATA USED TO AUGMENT SKY COVER AT AUTOMATED STATIONS**
 *****  WEATHER ACROSS EASTERN NORTH DAKOTA  *****

CITY           SKY/WX    TMP DP  RH WIND       PRES   REMARKS
GRAND FORKS    MOSUNNY   78  54  43 N8        30.10F
GRAND FORKS AF SUNNY     77  56  49 N6        30.12F
GRAND CITY NWS   N/A     77 N/A N/A N10         N/A
BUXTON         NOT AVBL
DEVILS LAKE    SUNNY     73  52  46 NE9       30.13F
FARGO          MOSUNNY   77  52  41 N9        30.10F
WAHPETON ARPT  PTCLDY    77  46  33 NW10      30.11F
$$

 *****  WEATHER ACROSS CENTRAL AND WESTERN NORTH DAKOTA  *****

CITY           SKY/WX    TMP DP  RH WIND       PRES   REMARKS
JAMESTOWN      SUNNY     76  52  43 N8        30.13F
BISMARCK       MOSUNNY   80  56  43 SW6       30.14F
MINOT          MOSUNNY   75  60  59 E5        30.16S
MINOT AFB      MOSUNNY   74  61  62 SE5       30.15S
GARRISON         N/A     71  59  65 E6        30.15F
WILLISTON      SUNNY     84  49  29 NE13G18   30.15F
DICKINSON      PTSUNNY   84  50  30 N8        30.13F
HETTINGER      MOSUNNY   83  49  30 W6        30.16F
$$

 *****  OTHER OBSERVATIONS NORTHEAST NORTH DAKOTA  *****

CITY           SKY/WX    TMP DP  RH WIND       PRES   REMARKS
WALHALLA         N/A     75  54  46 N9          N/A
LANGDON        MOCLDY    75  52  43 N7        30.15S
CAVALIER       FAIR      77  50  38 N6        30.11F
GRAFTON        FAIR      75  54  46 N7        30.11F
CANDO          FAIR      75  55  50 N6        30.15F
FORT TOTTEN    NOT AVBL
ROLLA          FAIR      73  54  49 N7        30.17S
RUGBY          FAIR      73  59  60 W3        30.14F
 ***** THE ABOVE OBSERVATIONS ARE NON NWS ARE NOT QUALITY
        CONTROLLED AND MAY MIS-REPORT RAIN FOR SNOW...
$$

 *****  OTHER OBSERVATIONS SOUTHEAST NORTH DAKOTA *****

CITY           SKY/WX    TMP DP  RH WIND       PRES   REMARKS
COOPERSTOWN    NOT AVBL
VALLEY CITY    FAIR      75  50  41 N8        30.13F
OAKES          NOT AVBL
GWINNER        CLEAR     75  54  46 NW7       30.14F
BUFFALO        NOT AVBL
WYNDMERE       NOT AVBL
 ***** THE ABOVE OBSERVATIONS ARE NON NWS ARE NOT QUALITY
       CONTROLLED AND MAY MIS-REPORT RAIN FOR SNOW...
$$

  *****  WEATHER ACROSS NORTHERN MINNESOTA  *****

CITY           SKY/WX    TMP DP  RH WIND       PRES   REMARKS
FLAG ISLAND    SUNNY     75  55  50 NW15      30.05S
WARROAD        SUNNY     77  57  50 NW10G17   30.07F
ROSEAU         MOSUNNY   77  57  50 NW12G17   30.08S
HALLOCK        SUNNY     77  54  44 N8        30.10S
THF RVR FALLS  SUNNY     75  55  50 W12       30.10F
HALSTAD          N/A     78  52  40 N6          N/A
FOSSTON        SUNNY     73  55  53 NW9       30.11F
BAUDETTE       SUNNY     76  55  48 NW14      30.06F
WASKISH        MOSUNNY   75  57  53 CALM      30.06F
CROOKSTON      SUNNY     75  57  53 N9        30.11F
$$
  *****  WEATHER ACROSS CENTRAL AND WEST MINNESOTA  *****

CITY           SKY/WX    TMP DP  RH WIND       PRES   REMARKS
BEMIDJI        SUNNY     74  54  50 NW13      30.09S
PARK RAPIDS    MOSUNNY   75  53  46 NW15      30.09F
WADENA         SUNNY     73  54  49 NW9       30.10F
DETROIT LAKES  SUNNY     73  52  46 NW12      30.12F
MOORHEAD       SUNNY     75  52  43 N8        30.11F
FERGUS FALLS   SUNNY     75  50  41 NW9       30.10F
ELBOW LAKE     FAIR      74  55  51 NW9       30.11F
MORRIS MN      SUNNY     75  54  46 NW8       30.10F
STAPLES        MOSUNNY   75  52  43 NW12      30.09F
WHEATON        SUNNY     73  55  53 NW9       30.12F
$$
  *****  WEATHER ELSEWHERE ACROSS MINNESOTA  *****

CITY           SKY/WX    TMP DP  RH WIND       PRES   REMARKS
DULUTH         MOSUNNY   67  58  72 W9        30.03F
INTRNTL FALLS  LGT RAIN  68  57  68 N8G20     30.04R
ELY            MOSUNNY   64  55  72 NW6       30.02R
CLOQUET        HVY RAIN  64  55  72 NW12G30   30.06R
BRAINERD       MOSUNNY   75  52  44 NW9       30.07F
HIBBING        MOSUNNY   75  56  51 NW10      30.03F
ALEXANDRIA     SUNNY     75  52  44 NW14      30.12F
SAINT CLOUD    SUNNY     77  53  43 NW10      30.06F
MINNEAPOLIS    MOSUNNY   79  55  43 W15       30.04F
$$

  *****  WEATHER ACROSS SOUTH DAKOTA  *****

CITY           SKY/WX    TMP DP  RH WIND       PRES   REMARKS
SIOUX FALLS    MOSUNNY   75  53  46 N7        30.14F
BROOKINGS      NOT AVBL
WATERTOWN      SUNNY     73  51  46 NW8       30.15F
HURON          SUNNY     78  52  40 N7        30.13F
SISSETON         N/A     77  54  44 VRB7      30.11F
ABERDEEN       SUNNY     77  52  41 NE7       30.14F
MITCHELL       PTSUNNY   77  54  44 N8        30.14F
PIERRE         SUNNY     82  50  32 N10       30.13F
MOBRIDGE       SUNNY     81  53  37 N5        30.12F
RAPID CITY     PTSUNNY   71  54  54 S7        30.22F
$$

  *****  SOME WEATHER IN NEARBY STATES *****

CITY           SKY/WX    TMP DP  RH WIND       PRES   REMARKS
GLASGOW MT     SUNNY     90  42  18 NE12      30.14F
GREAT FALLS MT MOSUNNY   92  42  17 NE13      30.14F
CHEYENNE WY    LGT RAIN  63  60  90 NW7       30.28R
SCOTTSBLUFF NE PTSUNNY   74  60  61 NE21G30   30.16F
OMAHA NE       PTSUNNY   78  54  43 CALM      30.13F
DES MOINES IA  MOSUNNY   80  54  40 N8        30.09F
DAVENPORT IA   MOSUNNY   76  59  55 W9        30.05F
CHICAGO IL     MOSUNNY   77  55  46 W14       29.98F
EAU CLAIRE WI  PTSUNNY   71  56  58 W8        30.02F
LA CROSSE WI   MOSUNNY   72  57  59 SE6       30.03S
$$

  *****  SOME NATIONAL WEATHER *****

CITY           SKY/WX    TMP DP  RH WIND       PRES   REMARKS
LA GUARDIA NY  PTSUNNY   74  49  41 NW10      29.92R
RALEIGH NC     MOSUNNY   78  59  51 NE5       29.95R
ATLANTA GA     MOSUNNY   79  57  46 NW14      29.99S
NEW ORLEANS LA PTSUNNY   88  65  46 N6        30.01F HX  90
OKLAHOMA CITY  CLOUDY    80  64  58 W10       30.09F
ALBUQUERQUE NM TSTM      65  62  90 VRB3      30.22R FOG
SALT LAKE CITY CLOUDY    72  62  71 S5        30.16F
LOS ANGELES CA PTSUNNY   77  61  57 W12       29.95F
BOISE ID       PTSUNNY   97  48  18 W15       30.00S HX  93
SEATTLE WA     SUNNY     84  49  29 N13       30.11F
$$

*** WEATHER ACROSS MANITOBA...SASKATCHEWAN AND ONTARIO ***
                ***ONTARIO***

CITY           SKY/WX    TMP DP  RH WIND       PRES   REMARKS
GERALDTON      PTSUNNY   61  50  67 N10       30.01
THUNDER BAY    MOSUNNY   72  57  60 VRB3      29.98R
SIOUX LOOKOUT  PTSUNNY   70  48  46 NE5       30.04S
TORONTO        CLOUDY    66  52  59 W15       29.94R
BIG TROUT LK   SUNNY     70  46  43 N5        30.05F
PICKLE LAKE    MOSUNNY   70  45  40 NE6       30.03F
DRYDEN         MOSUNNY   68  61  77 E3        30.04F
KENORA         CLOUDY    77  54  44 NW12      30.06S
$$
                *** MANITOBA***

CITY           SKY/WX    TMP DP  RH WIND       PRES   REMARKS
BRANDON        MOSUNNY   77  50  38 N8        30.14F
DAUPHIN        SUNNY     79  57  47 VRB6      30.13F
ISLAND LAKE    PTSUNNY   75  57  53 SE3       30.07F
PILOT MOUND    NOT AVBL
THE PAS        MOSUNNY   82  57  42 W7        30.08F
THOMPSON       PTSUNNY   79  59  50 NE8       30.07F
WINNIPEG       MOSUNNY   77  57  50 N10       30.10F
LYNN LAKE      MOSUNNY   84  46  26 NE6       30.08F
CHURCHILL      SUNNY     68  55  64 E8        30.10F
GILLAM         SUNNY     75  48  38 CALM      30.09F
$$
                ***SASKATCHEWAN***

CITY           SKY/WX    TMP DP  RH WIND       PRES   REMARKS
ESTEVAN        MOSUNNY   79  61  53 N12       30.17S
KINDERSLEY     NOT AVBL
LLOYDMINSTER   MOSUNNY   81  61  50 SE16      30.14F
PRINCE ALBERT  MOSUNNY   77  64  65 SE2       30.15F
REGINA         MOSUNNY   81  54  39 NW10      30.19F
YORKTON        SUNNY     75  55  50 NW3       30.17F


USA.gov is the U.S. government's official web portal to all federal, state and local government web resources and services.